Tracking 29892 objects as of 21-Nov-2024
HD Live streaming from Space Station
objects crossing your sky now

STARLINK-2066

Track STARLINK-2066 now!
10-day predictions
STARLINK-2066 is classified as:


NORAD ID: 47673
Int'l Code: 2021-012BF
Perigee: 467.0 km
Apogee: 469.2 km
Inclination: 53.1 °
Period: 93.8 minutes
Semi major axis: 6839 km
RCS: Unknown
Launch date: February 16, 2021
Source: United States (US)
Launch site: AIR FORCE EASTERN TEST RANGE (AFETR)
Your satellite tracking list
Your tracking list is empty




NASA's NSSDC Master Catalog

Two Line Element Set (TLE):
1 47673U 21012BF  24326.16667824  .00377872  00000-0  10442-1 0  9996
2 47673  53.0535  14.0185 0001608  80.8736 280.1230 15.34998626208421
Source of the keplerian elements: AFSPC